Simultaneous Nadir Overpasses (SNOs) Predictions

Prediction of SNOs between TERRA and METOP-C Satellite Orbit:

Table of predicted SNOs for the next 14.0 days since TLE Epoch: 4/16/2022
Index Date (TERRA) Time (TERRA) Lat,Lon (TERRA) SZA (TERRA ) Date (METOP-C) Time (METOP-C) Lat,Lon (METOP-C) SZA (METOP-C ) Distance(km) Time Diff (sec)
1 04/17/2022 12:54:52 -81.19,-151.94 107.12 04/17/2022 12:54:05 -81.19,-151.78 107.12 2.87 47
2 04/17/2022 13:44:17 81.22, 16.17 72.95 04/17/2022 13:44:45 81.21, 16.16 72.95 0.66 28
3 04/20/2022 08:29:03 -81.19, -85.45 108.07 04/20/2022 08:28:26 -81.19, -85.57 108.10 2.02 37
4 04/20/2022 09:18:28 81.22, 82.63 72.00 04/20/2022 09:19:05 81.22, 82.76 72.02 2.18 37
5 04/23/2022 04:03:15 -81.19, -19.08 109.01 04/23/2022 04:02:47 -81.19, -19.02 109.01 1.11 28
6 04/23/2022 04:52:40 81.21, 148.97 71.05 04/23/2022 04:53:27 81.21, 148.92 71.06 1.03 47
7 04/25/2022 23:37:26 -81.20, 47.55 109.88 04/25/2022 23:37:08 -81.19, 47.49 109.90 1.15 18
8 04/26/2022 00:26:52 81.20,-144.80 70.11 04/26/2022 00:27:49 81.20,-144.97 70.12 2.86 57
9 04/28/2022 19:11:36 -81.20, 114.05 110.75 04/28/2022 19:11:28 -81.20, 113.95 110.77 1.95 8



Historial Predications of SNOs between TERRA and METOP-C
